GFSSW_sfc_temp_000.txt.gz
Temp
62 64 64 65 65 65 65 65 65 65 64 64 65 64 65 65 68 66 62 66 66 70 67 62 63 63 61 59 57 53 48 43 46 46 50 54 50 47 47 48 45 47 46 49 51
61 61 64 64 64 64 65 65 65 64 64 64 64 64 65 65 65 63 70 73 71 71 64 63 61 62 58 56 55 51 46 48 51 49 49 52 51 50 47 44 44 43 46 48 49
60 60 61 63 64 64 65 64 64 64 64 64 64 64 64 63 62 62 72 72 71 68 63 61 60 59 55 53 52 48 48 50 52 53 53 52 49 49 48 43 47 45 46 46 44
60 59 59 62 62 63 64 64 64 64 64 63 63 63 64 63 53 62 70 70 70 65 64 62 61 56 51 50 52 48 51 52 55 54 51 50 49 48 48 50 48 49 49 44 44
60 60 59 61 61 63 63 64 64 63 63 63 63 64 62 58 62 64 69 68 65 64 61 60 58 52 50 49 52 48 49 52 53 54 52 52 50 50 47 46 46 47 46 44 44
60 59 60 60 61 62 63 63 64 63 63 63 63 63 60 55 64 64 63 64 63 62 58 60 56 55 52 49 48 48 49 51 52 52 51 50 46 47 47 43 44 46 44 43 43
59 59 59 60 61 61 62 62 63 63 63 63 64 63 58 63 62 62 65 59 59 59 58 56 56 56 51 49 50 48 48 49 47 49 50 49 46 45 45 44 43 43 42 42 43
59 59 59 60 60 61 61 62 62 62 63 63 64 59 58 62 61 62 61 60 61 60 59 57 56 55 51 51 50 45 43 42 46 49 47 48 43 50 44 43 42 41 39 41 42
59 58 59 59 60 60 61 61 61 63 64 63 58 58 57 65 59 60 59 59 58 58 57 63 56 49 50 44 43 42 39 38 46 49 46 46 44 49 43 42 42 41 40 41 40
59 59 59 59 59 60 60 61 62 62 62 63 65 56 58 57 58 58 57 60 57 55 55 55 48 46 43 43 39 39 36 39 40 45 43 42 45 52 44 41 44 43 41 40 41
60 60 60 59 59 60 56 58 60 57 57 58 55 55 55 57 58 56 57 57 55 52 48 47 46 44 47 45 44 41 38 38 41 46 43 43 45 51 51 40 41 39 38 40 41
60 60 60 60 59 59 52 53 46 47 49 54 52 54 55 55 53 55 59 54 51 47 46 45 43 48 47 44 44 40 36 37 41 41 41 41 41 47 51 45 44 44 40 41 41
60 60 60 59 58 54 49 46 49 47 45 52 53 52 53 57 53 52 57 51 48 44 44 43 46 48 47 42 42 38 36 35 39 39 39 36 36 38 45 44 45 44 46 43 42
60 60 60 58 55 48 47 47 48 47 40 48 50 52 52 53 49 53 53 51 45 46 44 45 45 46 42 42 43 36 40 38 37 34 30 38 32 36 43 45 42 42 40 42 41
59 60 58 58 48 49 49 47 46 50 26 48 49 55 51 49 48 48 50 49 45 45 44 45 42 41 40 42 44 41 40 37 35 31 27 29 25 31 34 40 48 46 42 42 41
58 58 56 52 47 46 46 45 49 40 28 45 48 47 46 46 47 47 47 50 46 44 41 43 42 44 44 41 40 41 37 34 29 28 21 30 29 29 33 39 42 42 40 39 38
58 58 54 52 47 45 45 48 38 29 44 45 46 44 43 43 45 45 44 42 42 38 36 38 40 39 42 39 38 38 35 27 23 20 26 27 24 39 41 42 44 44 39 37 37
57 56 54 54 47 46 46 43 28 37 41 45 43 41 42 44 42 42 39 39 42 39 34 36 38 40 42 43 40 35 36 28 18 18 29 22 25 37 40 42 37 36 36 37 34
56 52 51 52 47 46 43 31 38 39 44 44 42 37 38 42 43 39 37 37 43 44 45 35 35 38 38 39 40 34 32 34 26 9 15 30 31 37 40 38 38 36 36 35 34
53 51 51 52 50 50 36 42 40 46 46 44 43 43 37 39 39 38 38 40 44 45 46 44 38 36 36 37 35 35 37 29 28 20 11 27 30 36 44 40 41 36 35 34 32
51 46 48 51 53 45 37 37 42 48 49 45 41 41 41 40 39 35 39 43 45 42 45 43 42 36 34 33 32 31 31 31 32 26 20 15 36 38 42 42 42 38 38 35 33
50 41 47 53 42 43 39 38 45 44 47 47 45 44 43 41 38 36 38 47 47 44 40 42 39 35 37 31 32 32 34 37 30 25 21 21 35 39 41 42 40 38 38 34 34
46 45 48 49 37 39 36 37 43 41 44 49 44 43 44 43 39 39 41 45 45 45 41 42 36 33 34 30 30 31 33 34 33 27 25 23 33 38 38 37 35 35 36 33 32
45 38 41 42 44 40 39 38 38 42 46 45 43 44 39 38 45 44 37 42 43 47 48 49 38 35 37 38 34 29 32 34 37 30 33 33 38 46 48 49 51 43 34 33 33
46 41 43 35 38 40 41 40 40 38 41 44 42 44 42 41 43 42 42 37 39 43 39 43 38 41 43 46 33 34 35 35 30 35 32 37 37 43 47 49 51 52 42 33 31
46 42 41 40 42 39 39 38 37 40 41 38 41 44 46 42 46 44 45 40 42 33 34 34 36 38 36 40 34 33 38 39 33 36 35 38 38 51 53 54 51 50 41 33 31
53 48 45 41 39 37 37 37 39 43 45 47 46 44 43 44 51 53 47 44 45 42 31 29 31 23 30 31 28 25 34 40 42 42 38 31 40 48 47 47 47 45 35 34 33

GFSSW_sfc_temp_003.txt.gz
Temp
62 61 63 64 64 65 65 65 65 65 65 65 65 64 65 65 67 65 63 68 67 71 68 63 65 64 64 61 60 57 51 47 50 49 54 55 55 54 54 53 53 54 52 54 54
62 61 61 63 64 64 64 65 65 64 64 64 64 64 65 65 65 63 70 73 72 71 64 64 62 63 60 58 57 54 49 52 55 53 54 55 56 55 53 51 52 51 52 51 52
61 61 61 62 63 64 64 64 64 64 64 64 64 64 64 62 62 65 72 72 71 69 65 63 62 61 57 56 55 53 52 54 56 57 56 56 54 53 52 50 54 53 50 49 50
61 61 61 62 62 63 64 63 63 64 64 64 63 63 63 62 54 63 70 70 70 65 64 63 62 57 54 53 54 52 53 54 57 56 54 54 52 51 50 58 54 54 53 50 49
60 60 60 61 61 62 63 63 63 63 63 63 63 63 62 57 62 63 68 68 65 63 61 60 58 55 52 52 53 51 52 54 55 54 54 52 53 53 50 53 52 50 49 49 50
59 59 59 60 61 62 62 63 63 63 63 63 63 63 59 54 62 63 62 63 62 62 58 60 57 56 54 51 51 50 51 53 52 53 53 52 50 50 52 47 48 47 48 48 49
59 58 59 59 60 61 62 62 62 62 62 63 64 64 58 62 63 62 64 58 58 59 58 56 58 56 54 50 51 50 49 51 50 51 51 51 48 47 52 47 47 45 45 46 48
59 58 58 59 60 60 61 61 62 62 62 63 64 59 58 61 61 63 60 59 60 59 58 56 56 56 52 52 50 46 46 45 50 50 50 51 46 53 48 46 47 44 44 45 46
59 59 59 59 59 60 60 61 61 62 64 63 56 57 57 64 59 59 58 60 57 57 57 61 55 50 50 47 45 44 43 41 46 50 48 49 47 51 47 44 46 44 44 45 46
59 59 59 59 59 60 60 61 61 61 62 62 64 55 57 56 58 59 57 59 56 55 55 54 49 46 44 45 41 42 40 41 41 47 45 44 46 54 52 44 48 47 44 44 44
59 59 59 59 60 60 56 58 59 57 56 57 53 54 54 55 57 55 56 57 55 53 49 47 46 44 48 46 45 43 40 41 43 46 44 44 45 51 55 45 46 44 42 43 44
60 59 59 60 60 60 51 52 47 48 49 53 52 53 54 54 53 54 57 54 51 47 46 44 44 48 48 45 44 41 39 39 42 42 42 41 42 49 52 53 55 49 44 44 44
60 60 60 60 59 53 47 47 47 45 45 51 53 52 52 56 52 52 56 50 47 43 43 42 45 46 47 41 41 39 38 38 41 40 39 37 37 39 46 47 48 47 48 46 45
59 59 60 59 53 47 46 46 47 45 38 46 49 52 52 52 49 51 51 50 44 45 42 44 45 46 41 42 43 38 41 39 38 36 32 39 35 38 45 47 47 46 43 46 44
59 59 60 58 47 46 46 46 45 48 26 47 48 54 51 49 46 46 49 48 44 43 44 45 41 40 40 43 44 41 40 39 37 34 30 32 28 38 36 41 49 50 45 44 44
58 58 58 52 46 46 45 43 48 40 27 43 48 45 45 45 46 46 46 48 45 43 40 42 42 44 44 40 40 41 38 36 31 30 22 35 34 35 36 42 47 47 48 46 41
58 57 55 53 47 45 45 46 37 29 42 43 44 43 41 43 43 45 44 41 41 38 36 38 39 40 42 40 39 39 37 29 26 22 28 27 26 42 42 43 48 50 47 44 41
57 57 55 55 48 47 46 43 28 36 40 42 42 39 42 43 42 41 39 38 42 40 36 38 41 39 41 44 41 36 38 30 22 21 36 22 26 41 42 49 43 43 42 40 40
57 53 51 51 49 49 46 32 41 39 43 43 40 35 36 41 42 38 36 36 43 46 45 36 37 37 38 39 41 34 32 36 26 10 19 35 37 40 41 41 40 40 38 40 40
53 50 50 52 51 50 38 43 41 46 44 43 43 44 37 38 37 38 36 39 43 45 48 46 39 37 36 37 35 36 38 30 29 22 15 31 38 43 40 44 44 41 40 42 40
52 47 50 52 55 44 34 36 40 47 48 45 44 41 40 39 39 33 40 43 44 43 46 45 44 36 35 33 33 32 32 32 33 28 23 22 39 42 45 45 46 46 42 42 41
50 42 48 55 41 42 38 37 44 42 43 47 43 43 42 40 36 34 36 46 47 44 40 43 40 36 31 30 33 33 37 38 32 28 23 24 37 44 45 45 44 44 42 42 40
47 45 48 51 36 38 36 37 41 40 43 44 43 41 43 40 38 37 39 43 45 45 42 43 37 28 35 30 31 32 33 37 34 29 35 25 36 48 45 44 42 41 39 40 39
46 38 41 43 45 42 41 40 39 42 44 44 42 43 38 36 41 44 37 42 42 46 47 49 38 37 38 42 35 29 31 35 37 34 35 35 41 49 52 50 47 42 38 41 39
47 40 41 34 38 41 44 40 41 39 41 43 43 45 42 41 43 42 43 39 40 41 41 43 38 41 43 45 37 35 35 36 32 36 34 40 39 45 51 51 52 53 53 44 36
47 40 42 40 41 39 40 38 38 42 42 40 42 46 45 41 44 41 45 40 39 32 37 37 36 37 38 42 36 35 37 41 39 39 36 38 38 52 55 55 52 52 51 50 45
52 48 43 40 38 36 37 38 40 43 45 48 47 44 42 44 49 50 51 44 44 41 39 34 34 32 29 37 30 25 35 41 43 45 42 35 42 49 48 48 48 50 50 48 46

GFSSW_sfc_temp_006.txt.gz
Temp
63 63 63 64 64 65 65 65 65 65 65 65 65 65 65 65 66 77 77 78 77 71 70 77 78 77 77 73 72 71 69 65 65 62 67 68 67 66 65 66 64 67 66 65 70
62 62 63 63 64 64 64 64 64 64 64 65 65 64 64 65 77 77 77 74 72 71 76 77 75 76 76 71 72 72 67 67 70 70 68 68 68 69 66 65 64 65 66 61 65
61 61 62 62 63 63 64 64 63 64 64 64 64 64 64 69 76 78 73 73 72 72 76 76 76 76 71 71 69 67 67 68 69 70 69 68 66 69 67 65 71 71 72 62 62
60 60 61 61 62 63 63 63 63 63 64 64 64 64 64 78 68 76 70 71 70 76 76 75 75 72 69 68 67 65 67 67 68 66 65 65 66 64 66 73 70 72 70 64 62
59 59 59 60 61 62 63 63 63 63 63 63 63 63 72 74 75 75 69 71 76 76 74 74 73 70 68 68 65 64 66 66 67 64 65 62 64 66 65 72 72 65 63 63 63
59 58 58 59 60 61 62 63 63 63 63 63 63 64 76 68 73 75 73 73 74 75 72 73 73 71 68 66 66 66 64 66 65 64 64 62 65 60 69 64 66 63 64 65 64
59 59 58 59 60 61 61 62 62 62 62 63 64 70 73 75 75 75 73 70 70 73 71 69 71 70 68 63 63 62 62 66 64 63 63 61 60 60 73 61 64 62 64 63 63
59 59 59 59 59 60 61 61 61 62 62 64 64 73 72 71 76 73 73 70 71 71 69 68 70 67 66 63 62 60 59 59 64 61 60 61 59 70 69 63 65 67 65 61 61
59 58 59 59 59 59 60 61 61 62 64 64 71 73 70 69 69 71 73 70 68 68 68 68 69 64 63 63 62 59 60 58 59 62 60 60 60 65 65 61 63 68 67 62 61
59 59 59 59 59 59 60 61 63 63 67 69 72 70 69 67 67 68 70 70 67 66 66 66 66 64 62 63 56 61 57 59 57 61 57 57 57 65 69 63 64 69 70 64 59
60 60 59 59 59 60 61 70 74 70 70 70 69 68 66 66 67 65 68 68 68 67 63 61 62 60 67 66 66 61 58 58 64 57 56 57 57 62 66 65 65 67 69 64 61
60 60 60 59 60 60 61 66 61 59 63 64 62 62 64 66 63 62 68 66 63 61 59 58 57 67 60 59 57 56 57 58 60 53 51 54 52 58 61 63 65 67 69 67 62
59 60 60 59 59 61 58 57 55 57 59 61 62 62 62 64 62 62 65 62 61 56 57 59 64 54 56 54 53 55 55 58 54 52 51 49 52 53 59 58 60 63 65 66 62
59 59 59 60 58 57 58 54 56 56 56 56 58 60 58 61 58 58 61 62 58 57 54 57 59 56 54 55 56 52 57 53 50 49 49 50 45 57 59 57 60 66 64 60 59
59 59 59 60 56 56 54 54 55 59 40 57 56 61 57 57 55 54 59 60 57 54 55 58 50 50 51 55 55 54 50 49 48 48 42 50 42 56 49 52 60 67 67 62 61
58 58 57 57 57 56 54 55 58 53 38 53 55 52 52 53 53 54 56 60 57 54 52 55 53 54 56 48 50 48 49 46 44 44 38 51 46 55 55 57 61 66 65 62 59
58 58 57 58 55 54 54 58 50 43 51 52 53 50 51 50 50 51 50 49 50 47 48 51 51 51 51 50 49 49 50 45 42 37 41 45 41 52 59 61 61 67 68 61 59
58 57 57 58 54 55 56 53 39 52 52 53 51 48 50 51 51 48 47 49 50 50 48 50 49 46 52 56 55 47 52 44 34 40 44 36 38 55 59 63 65 58 59 55 57
58 56 53 56 53 55 50 43 49 55 55 50 48 46 49 49 52 48 49 53 54 52 51 48 50 46 46 49 53 44 43 50 41 29 34 49 57 55 51 52 53 55 56 57 56
54 51 51 55 55 53 44 46 55 58 52 53 51 54 52 54 46 48 50 54 55 52 60 55 46 46 43 48 46 45 49 40 43 33 34 46 49 51 54 54 53 52 55 59 58
54 47 51 53 55 44 38 45 53 56 56 54 55 55 54 55 51 51 53 56 55 51 53 54 49 45 44 43 46 41 43 42 43 40 38 37 46 56 55 57 55 57 60 61 59
51 43 49 52 41 41 37 48 47 50 51 54 53 55 56 54 50 50 51 56 58 51 45 51 47 45 49 44 44 49 49 48 41 38 40 42 45 57 57 59 57 59 57 59 58
47 45 49 51 37 36 42 43 44 48 50 51 51 52 54 52 44 51 55 57 53 51 48 47 40 37 44 40 40 42 44 46 49 46 40 36 42 63 64 59 56 57 58 56 56
48 39 41 43 45 43 41 41 41 45 46 46 44 46 42 44 49 49 48 49 49 50 45 49 40 43 41 48 45 41 43 43 45 39 41 42 47 55 59 59 62 60 53 56 57
48 41 41 33 36 40 43 42 41 40 46 47 43 45 44 41 45 44 48 51 44 44 46 47 37 41 44 47 47 46 46 45 39 43 41 47 48 54 58 59 61 63 62 60 60
45 40 41 41 42 39 39 39 39 44 46 43 41 46 46 41 43 43 46 45 44 40 44 41 36 39 35 42 41 39 44 46 45 45 46 46 44 56 59 61 59 59 59 57 58
48 49 43 39 37 36 36 37 41 44 47 49 48 44 43 44 47 51 52 49 44 41 39 37 34 32 29 37 37 31 35 39 43 47 48 41 50 57 55 55 55 57 57 54 55

GFSSW_sfc_temp_009.txt.gz
Temp
63 63 64 64 64 64 65 65 65 64 65 65 65 65 65 65 66 78 80 81 80 72 70 83 82 83 82 79 78 78 70 68 70 69 73 75 72 75 74 75 72 74 74 72 76
62 62 63 63 63 64 64 64 64 64 64 64 65 65 65 65 81 81 78 74 74 73 81 81 80 80 80 77 77 74 69 72 76 77 74 75 73 77 70 71 72 72 75 69 71
61 61 61 62 62 63 64 64 63 63 64 64 64 64 64 69 78 83 72 73 73 74 82 82 82 80 75 77 76 74 70 75 76 76 75 74 73 76 71 70 77 75 77 69 69
60 59 60 61 61 62 63 63 63 63 63 63 64 64 64 81 69 80 71 72 71 82 81 80 79 75 73 71 76 68 75 74 74 72 70 70 74 71 72 75 77 79 82 73 67
60 59 59 59 60 61 62 63 63 63 63 63 63 63 75 77 79 78 69 71 80 79 79 79 77 77 72 75 72 68 74 73 74 70 69 72 67 70 73 79 81 78 71 73 69
59 59 59 59 60 61 61 62 62 62 62 63 63 63 78 70 78 81 79 76 80 80 79 79 78 78 74 72 69 72 71 72 74 71 70 65 69 67 74 77 78 77 72 72 72
59 59 59 59 60 60 61 61 62 62 62 63 64 74 77 78 81 81 78 76 76 78 77 76 77 74 74 71 72 69 64 73 73 70 67 67 62 65 74 74 72 72 72 72 72
59 58 59 59 59 60 60 61 61 61 62 64 64 77 74 76 83 77 79 75 76 77 76 74 76 74 71 70 69 65 66 62 74 68 66 65 62 76 81 72 69 73 75 72 72
59 58 59 59 59 59 60 60 60 62 64 65 72 77 74 70 73 77 79 75 74 74 73 73 74 71 67 65 65 67 60 65 69 68 66 62 64 75 75 72 71 74 76 76 73
59 59 59 59 59 59 60 61 65 63 69 74 77 71 73 71 71 73 76 76 72 70 70 69 70 66 66 66 57 64 65 67 64 68 63 62 60 69 73 73 72 74 76 76 77
60 60 60 59 59 60 63 76 75 72 72 74 74 75 71 70 71 69 73 71 72 70 64 67 63 62 69 72 69 66 63 62 68 71 62 61 62 67 71 72 71 73 74 76 76
60 60 61 60 60 60 63 71 64 61 63 75 72 69 72 73 67 67 72 67 65 62 69 61 58 68 72 65 65 65 59 60 67 69 57 59 58 65 68 68 70 70 71 74 77
60 59 59 59 60 63 65 63 63 64 61 69 70 69 71 68 67 70 68 68 65 63 65 59 68 65 62 63 58 60 58 60 61 65 59 55 54 60 67 68 68 68 70 73 73
59 59 59 59 59 64 64 61 63 64 57 63 62 65 63 65 60 63 68 67 63 61 65 63 68 64 60 58 63 54 65 62 57 54 50 57 46 59 64 66 66 66 70 75 69
59 59 59 59 62 62 59 62 63 63 42 62 58 64 61 61 60 56 63 61 60 61 60 62 61 54 55 59 63 58 56 56 55 52 51 53 48 56 55 57 60 66 70 75 69
58 58 57 61 63 63 61 62 61 54 41 57 60 56 54 56 55 56 58 63 61 60 59 58 58 58 60 53 56 55 54 52 51 50 41 53 52 53 60 61 65 69 72 74 68
58 58 57 65 61 61 61 61 52 45 59 57 58 56 57 56 54 53 51 50 52 48 51 58 57 59 56 53 53 53 52 46 44 40 40 60 51 57 65 66 67 69 71 71 65
58 57 57 64 65 62 61 55 42 55 58 60 58 55 53 60 55 53 52 52 55 56 53 54 50 55 56 57 60 49 54 46 36 40 45 44 44 56 67 70 69 69 67 66 64
57 55 54 58 59 61 51 42 50 57 63 62 58 53 55 56 55 55 53 58 62 57 51 53 52 51 55 55 59 51 44 56 44 37 37 49 58 66 61 63 63 61 63 63 62
55 53 53 58 56 52 41 42 56 63 63 60 54 59 54 58 52 54 58 64 59 60 62 60 49 57 46 50 51 51 55 44 45 33 34 46 50 53 55 57 60 58 60 64 65
54 48 54 55 52 44 34 39 52 61 61 55 55 56 58 58 61 57 57 64 66 61 59 58 52 50 47 45 51 44 45 46 47 47 39 37 47 62 62 61 64 62 63 66 66
51 44 51 52 41 40 36 44 50 52 58 52 55 54 56 59 57 57 57 62 67 59 51 55 47 43 50 60 55 55 53 52 42 40 45 44 45 63 61 62 63 63 64 68 67
48 46 50 51 38 36 42 45 48 50 51 49 47 51 51 47 43 53 57 65 66 56 50 51 40 36 42 48 45 46 51 52 53 48 41 37 43 64 66 66 67 62 64 63 60
48 41 42 43 46 43 38 41 41 50 48 49 43 44 42 39 43 40 41 52 49 50 46 49 41 41 38 46 53 46 47 48 47 40 40 42 47 55 59 60 64 65 67 66 64
46 44 44 35 38 41 43 41 41 40 47 48 42 41 39 35 38 36 41 44 46 44 45 43 32 40 44 48 51 48 47 47 44 45 40 45 47 54 59 60 63 66 66 64 64
40 43 42 41 46 40 40 39 39 43 45 44 41 45 44 38 41 42 45 43 42 41 40 43 32 35 32 38 40 38 43 46 45 47 47 48 46 58 61 62 61 62 62 60 61
44 43 36 37 38 38 39 39 41 46 47 50 50 47 43 44 49 50 52 51 46 38 35 34 33 32 29 38 35 30 36 41 44 49 49 42 50 58 57 58 58 60 61 59 59

GFSSW_sfc_temp_015.txt.gz
Temp
62 62 63 63 63 64 64 64 64 64 64 64 65 64 64 65 65 67 67 74 73 71 70 72 70 69 67 64 65 62 50 47 53 54 56 60 59 60 61 58 59 64 59 59 60
62 62 62 62 62 63 63 64 63 63 63 64 64 64 64 64 67 67 75 72 71 71 73 70 66 68 60 62 61 55 47 53 60 58 57 60 60 60 56 56 57 58 56 58 59
61 61 61 62 62 62 63 63 63 63 63 63 63 63 63 62 64 69 72 72 72 71 72 72 70 68 59 60 60 57 52 59 62 62 61 60 57 62 58 55 59 60 59 56 55
61 61 61 61 61 62 62 62 62 62 63 63 63 63 62 64 57 69 71 72 71 71 70 69 66 61 57 57 63 55 61 63 63 63 60 57 61 60 59 63 65 63 62 57 56
60 60 60 60 60 61 62 62 62 62 62 62 63 62 63 59 64 69 68 70 70 71 69 67 63 61 56 58 60 56 58 62 63 62 61 60 58 57 58 62 64 65 60 58 57
60 59 59 59 60 61 61 62 62 62 62 62 63 62 60 56 70 70 69 68 70 68 67 67 65 65 60 59 56 57 58 58 60 61 60 58 54 56 58 62 62 63 61 56 58
60 59 59 59 60 60 61 61 62 61 61 62 63 64 60 63 71 69 70 67 67 68 65 67 65 62 59 57 59 58 55 56 60 59 58 57 53 53 64 58 60 60 60 59 57
60 59 59 59 59 60 60 61 61 61 61 62 63 60 59 68 66 69 69 65 67 67 66 65 66 61 59 59 58 51 48 45 56 56 56 58 50 58 61 57 58 59 56 57 58
60 59 59 59 60 60 60 61 60 61 63 64 58 57 59 68 65 69 68 65 66 65 63 70 63 57 55 49 46 45 42 44 51 58 53 52 49 57 60 56 57 55 56 58 60
60 59 59 59 60 60 60 61 61 62 63 66 68 56 62 62 64 67 66 67 62 61 60 58 54 50 47 45 41 41 41 47 47 52 50 47 50 57 57 55 57 56 54 56 61
60 60 60 60 60 61 58 54 58 56 57 58 59 59 62 61 65 61 64 63 62 57 50 53 46 45 53 52 51 49 46 44 55 57 53 54 52 56 60 54 53 58 60 62 62
60 60 60 60 60 60 55 54 49 50 48 58 61 62 66 63 59 59 65 58 55 49 51 48 43 55 54 53 51 49 47 46 54 55 51 52 52 57 54 58 60 58 60 62 64
60 59 59 59 60 58 53 51 57 54 43 54 59 61 61 62 58 58 61 57 52 48 49 50 51 56 54 51 50 51 47 49 48 52 48 45 42 48 54 56 60 62 62 63 62
59 59 59 59 56 55 52 56 56 53 38 48 55 58 58 59 53 57 61 58 51 50 49 48 56 55 49 49 53 48 52 51 49 41 41 43 38 46 50 52 54 58 60 60 53
59 59 59 60 52 52 55 56 54 50 27 51 53 59 55 54 52 51 54 52 48 49 49 49 49 46 47 53 52 51 48 46 42 39 36 39 36 42 50 48 54 60 61 62 57
58 58 59 56 52 56 57 54 52 41 28 48 50 48 48 48 48 50 50 54 51 46 48 47 49 50 50 47 50 48 43 42 39 36 32 38 40 43 43 51 52 59 60 61 58
58 57 57 62 55 58 58 55 42 33 50 47 48 47 46 44 45 45 44 41 42 37 37 43 47 49 51 44 44 43 40 29 27 24 31 43 36 49 50 52 55 58 59 61 53
57 57 55 59 59 57 53 43 32 44 47 52 50 46 45 48 47 44 41 38 42 40 39 38 42 45 49 51 44 39 43 30 22 30 40 34 31 42 54 58 57 59 62 55 51
57 55 54 56 56 54 46 35 41 44 51 51 51 44 42 47 49 43 39 39 45 46 41 39 40 44 44 45 49 40 36 46 33 17 24 42 43 51 49 52 52 54 48 51 50
54 53 52 56 56 50 41 41 44 51 53 52 44 47 40 44 45 44 41 45 47 48 56 49 41 48 43 44 42 42 44 33 32 22 18 38 33 44 51 57 59 48 50 49 48
52 48 52 55 55 45 35 39 44 51 52 49 46 45 45 42 46 45 43 49 53 50 49 45 44 45 41 38 40 36 38 39 39 33 33 33 40 47 48 48 49 49 49 50 49
49 42 51 55 42 42 40 44 47 48 52 50 48 48 45 46 44 44 43 45 54 50 43 43 39 32 40 45 43 45 43 44 37 34 33 36 39 59 53 51 51 53 52 50 52
45 46 50 50 39 40 41 43 46 45 47 47 45 47 49 44 38 45 44 51 53 50 42 42 32 29 31 42 40 40 42 45 44 37 34 29 33 56 57 56 52 50 50 52 53
42 37 43 44 45 43 42 42 42 46 45 46 46 47 43 40 44 40 42 45 47 48 47 45 34 32 31 40 44 38 40 41 43 35 36 34 36 45 51 53 56 58 61 62 64
39 36 40 34 39 41 42 42 40 41 46 47 43 43 42 38 40 38 43 44 45 46 43 41 31 33 36 39 41 39 40 41 38 40 33 36 38 43 49 51 54 57 59 59 60
34 34 38 35 39 38 40 39 38 39 41 40 39 41 40 37 38 35 40 41 40 38 40 40 33 35 32 35 35 34 38 38 38 38 39 41 40 50 53 55 54 55 57 56 58
38 40 37 33 31 32 33 37 39 37 38 39 36 34 33 37 40 38 38 37 38 39 39 37 33 32 29 35 33 28 34 36 38 42 42 35 43 51 50 52 52 54 55 55 57

GFSSW_sfc_temp_021.txt.gz
Temp
62 62 63 63 63 63 63 64 63 63 63 63 63 63 63 63 64 62 62 72 70 70 70 66 64 63 62 59 59 54 47 42 47 49 53 55 54 57 56 54 55 60 56 54 53
62 62 62 62 62 63 63 63 63 63 63 63 63 63 63 63 60 61 71 72 72 70 68 65 62 62 57 56 57 53 43 49 53 53 53 55 55 55 53 53 54 57 54 52 52
61 61 62 62 62 62 62 62 62 62 63 63 63 63 62 60 60 65 72 72 70 70 68 67 64 63 54 54 54 51 49 52 57 58 58 56 53 57 53 54 56 59 60 52 50
61 61 61 61 61 61 62 62 62 62 62 62 62 62 62 58 55 66 70 71 70 68 67 65 61 56 52 53 56 49 55 56 59 59 56 54 56 54 55 65 62 61 56 52 50
60 60 60 60 61 61 62 62 62 62 62 62 62 62 60 56 62 66 67 68 65 65 65 62 59 56 52 53 53 51 53 57 57 57 56 56 55 54 56 62 60 60 57 54 52
60 60 60 60 61 61 62 62 62 62 62 62 62 62 56 53 67 66 65 64 63 61 61 62 60 60 55 54 53 52 54 56 54 56 56 56 56 53 63 58 58 57 56 54 53
60 60 60 60 60 61 61 62 62 61 61 62 62 59 55 62 65 64 65 63 65 64 60 61 60 58 54 52 55 53 51 52 52 54 54 53 52 49 64 56 58 56 56 54 55
60 60 59 60 60 61 61 61 61 61 61 61 62 54 56 64 61 63 63 61 64 63 63 61 62 58 54 56 54 47 44 42 51 50 52 55 49 62 59 55 57 57 54 54 56
60 59 59 60 60 60 60 61 60 61 62 62 54 52 55 64 61 63 63 62 62 61 60 67 61 54 51 45 43 39 38 40 47 53 51 50 47 58 56 53 54 55 56 57 55
60 59 60 60 60 60 60 61 60 60 61 61 63 52 59 58 60 62 60 63 58 57 57 55 49 47 42 42 38 38 36 39 42 50 45 44 46 54 59 53 53 55 57 58 60
60 60 60 60 60 61 57 54 55 53 53 55 54 55 58 58 61 58 61 60 57 53 47 48 43 42 51 48 47 43 40 40 47 53 44 45 48 52 59 58 51 53 57 60 62
60 60 60 60 60 60 53 50 47 48 45 54 54 55 58 58 54 56 62 55 52 47 46 41 40 52 49 47 45 44 43 42 50 53 45 47 48 54 54 58 61 62 60 62 62
60 59 59 59 59 56 50 50 53 50 42 50 53 53 56 59 54 55 59 52 47 44 44 47 47 51 48 44 44 42 39 45 44 45 43 41 44 47 50 55 59 61 63 63 62
59 59 59 59 55 51 50 53 53 51 37 45 50 52 54 55 50 53 54 53 46 46 44 43 50 49 42 42 47 44 46 47 44 36 37 40 36 43 51 54 51 57 61 58 59
58 58 59 59 52 52 56 54 51 50 31 48 49 57 52 50 48 48 51 51 44 44 43 45 42 41 42 47 47 45 46 44 39 35 32 33 31 38 45 45 51 57 59 61 61
58 58 58 57 54 56 55 54 52 41 32 45 48 45 46 46 46 47 47 51 48 43 43 45 44 47 46 45 46 45 40 38 33 33 29 37 37 40 40 47 48 53 56 58 61
57 57 56 59 54 56 56 53 42 34 47 44 44 44 42 42 43 43 41 40 40 35 35 39 41 43 48 42 41 44 37 29 26 23 29 38 33 47 50 51 53 57 57 56 53
56 56 55 58 56 55 52 45 35 43 42 47 45 42 44 47 44 40 37 37 39 37 35 35 38 42 45 46 41 39 40 29 20 24 37 34 35 49 52 54 53 49 50 52 52
55 54 54 55 55 54 48 38 39 45 50 47 49 41 38 43 45 40 37 37 42 43 39 34 36 40 42 42 47 36 35 42 31 19 20 38 44 54 46 48 47 51 47 48 49
48 50 52 55 56 52 44 40 44 50 51 50 42 46 39 43 43 43 41 41 41 43 48 43 35 43 38 40 40 41 41 32 30 24 19 35 36 42 48 55 59 49 49 47 47
47 44 50 54 55 46 38 40 45 52 53 48 45 44 44 44 45 44 43 45 45 44 47 45 39 37 40 37 40 35 35 36 37 33 31 28 36 55 51 47 46 46 48 48 51
44 37 51 55 43 43 40 44 47 47 50 48 46 47 44 45 43 43 42 45 49 47 41 44 39 32 35 40 42 40 39 40 33 30 35 37 38 57 56 56 55 57 56 49 50
41 40 51 50 37 39 43 43 46 45 46 45 44 45 47 43 37 42 44 51 52 47 43 42 33 31 33 34 34 34 40 41 42 39 32 28 34 54 55 55 57 56 50 51 49
38 33 42 45 46 41 40 41 41 46 45 46 45 46 42 40 44 39 40 45 44 45 45 44 40 35 29 37 39 34 36 39 39 33 33 35 38 45 48 50 55 58 57 55 49
37 33 38 34 37 40 41 40 38 38 44 46 41 41 40 35 37 36 39 38 39 41 40 37 32 34 34 35 34 32 32 35 36 40 33 36 37 43 49 48 43 40 41 39 39
33 32 35 33 36 35 38 37 36 39 41 39 38 38 35 33 34 30 28 31 30 33 34 36 26 31 28 34 35 32 34 34 33 34 34 36 37 34 31 31 32 34 35 35 36
34 36 35 32 29 28 30 35 33 36 39 38 33 30 30 32 33 34 36 34 34 31 29 30 28 24 22 31 29 23 31 35 38 39 32 28 24 28 27 28 30 32 34 34 37

GFSSW_sfc_temp_024.txt.gz
Temp
62 62 63 63 63 63 63 63 63 63 63 63 63 63 63 63 64 59 60 71 69 70 69 65 63 61 60 58 57 53 46 40 45 46 52 52 51 54 54 53 52 58 55 55 50
62 62 62 62 62 62 62 63 62 62 63 63 63 63 63 62 58 60 70 72 71 70 66 64 60 61 56 54 54 51 43 47 51 50 52 53 53 54 52 53 53 56 57 51 50
61 62 62 62 62 62 62 62 62 62 62 62 62 62 62 59 59 64 72 72 70 70 67 64 62 61 52 52 52 49 48 51 55 56 54 54 52 55 51 54 55 59 61 52 49
61 61 61 61 62 62 63 62 62 62 62 62 62 62 61 56 54 64 70 70 69 67 66 63 59 54 51 51 54 47 53 54 55 56 53 52 54 53 55 64 62 61 59 52 50
61 60 60 61 61 62 62 63 62 62 62 62 62 62 58 55 62 64 67 67 65 65 63 60 57 55 50 50 51 48 51 55 55 55 55 54 54 53 54 62 60 59 57 55 52
60 60 60 60 61 62 62 62 62 62 62 62 62 61 54 51 65 64 63 63 63 62 60 60 59 58 53 52 52 50 51 52 54 54 54 54 58 51 58 58 58 55 55 54 53
60 60 60 60 61 61 61 62 62 61 61 62 62 58 53 60 63 62 64 61 61 61 59 59 60 57 54 50 52 50 49 50 50 52 51 51 50 48 61 53 57 56 54 55 53
60 60 60 60 60 61 61 61 61 61 61 61 61 53 54 62 59 61 61 59 60 60 60 60 60 57 53 52 51 45 42 41 49 48 49 53 45 63 59 52 56 55 55 53 55
60 59 59 60 60 60 60 61 60 62 62 61 53 53 55 62 58 61 61 60 60 58 58 65 58 52 50 44 42 38 37 39 44 51 48 48 44 57 54 51 53 53 55 57 58
60 59 60 60 60 60 60 60 60 60 60 60 62 51 58 57 58 58 57 61 57 56 55 53 48 45 41 42 37 38 34 38 39 47 44 42 44 51 58 50 56 58 59 57 61
60 60 60 60 60 61 56 54 54 52 52 55 53 53 56 56 58 56 59 59 56 52 46 46 42 41 50 46 45 40 39 38 45 50 42 47 49 52 57 57 57 59 60 57 60
60 60 60 60 60 60 53 50 47 48 45 53 53 54 56 57 53 54 59 55 50 45 44 41 37 49 47 44 44 43 41 40 48 51 43 44 46 52 54 56 60 61 61 63 64
60 59 59 59 59 56 50 49 52 49 41 49 52 51 54 57 52 54 57 50 46 43 43 44 45 48 46 42 43 40 37 43 42 43 41 39 42 44 49 52 57 59 60 60 60
59 59 59 59 56 50 50 52 52 50 37 43 48 51 52 52 48 52 53 52 45 45 42 41 47 46 40 41 45 43 45 45 42 36 33 40 34 45 56 56 50 55 55 52 54
58 58 59 59 53 53 53 53 53 49 31 47 47 55 51 49 46 47 50 48 42 42 43 43 42 40 40 44 44 43 44 41 36 33 31 31 31 36 43 44 50 52 54 54 52
57 57 58 57 55 55 56 55 54 42 33 43 46 44 44 45 44 45 46 49 45 42 40 42 43 45 46 45 45 44 39 37 32 32 26 35 36 35 40 46 48 52 54 53 55
56 56 56 58 53 54 55 52 40 34 46 42 41 43 42 41 42 43 41 39 39 34 34 37 40 42 45 40 40 40 37 29 25 22 29 35 31 44 47 51 52 55 55 53 50
55 55 55 57 55 55 53 46 33 41 43 49 46 43 41 45 44 41 36 37 39 37 34 34 38 42 44 44 41 37 39 29 22 21 35 31 30 42 49 52 50 47 51 48 49
55 51 52 55 55 54 49 37 39 41 48 47 48 43 40 44 46 42 39 37 41 44 42 35 34 39 41 41 45 35 35 40 33 22 21 38 44 47 45 45 44 48 47 47 48
45 47 48 55 56 51 44 40 43 48 49 50 41 44 38 41 42 41 40 39 40 43 48 43 35 41 38 40 37 40 41 33 31 24 19 33 32 39 46 51 51 47 45 47 48
44 42 49 54 55 46 37 39 46 51 51 47 44 42 43 42 44 42 41 43 42 41 45 44 38 36 37 36 38 35 35 36 37 33 28 26 34 51 46 42 43 43 47 48 51
42 35 50 55 43 43 39 42 45 47 50 46 46 45 43 43 41 42 42 45 48 47 41 43 38 32 36 42 42 41 40 40 33 30 32 36 36 55 52 52 48 45 40 39 39
37 38 50 50 36 37 43 42 44 44 45 44 43 44 46 42 37 42 43 48 49 45 42 41 34 30 29 33 33 33 37 41 41 39 30 26 31 53 54 50 32 37 37 38 39
36 30 38 44 43 38 38 40 41 46 44 46 44 45 42 39 42 38 39 43 42 42 44 44 37 33 29 35 38 32 36 36 33 27 30 30 32 39 35 30 30 34 35 36 37
34 30 36 33 36 37 40 39 35 35 43 45 41 39 39 34 35 34 38 36 38 39 37 36 30 34 34 32 31 31 30 31 30 33 27 31 33 37 27 28 31 34 35 35 36
29 31 33 29 33 30 34 33 35 38 38 38 36 39 37 33 33 31 27 29 28 32 32 33 24 28 25 31 32 29 31 32 32 33 33 34 33 29 30 32 32 31 32 32 35
32 33 35 29 28 26 26 30 30 32 33 34 32 30 29 32 32 32 32 32 31 29 27 28 22 16 18 28 23 18 25 30 31 33 26 23 22 25 26 28 30 31 32 32 31

GFSSW_sfc_temp_027.txt.gz
Temp
63 63 63 63 63 63 63 63 63 63 63 63 63 63 63 63 63 59 60 70 68 70 68 65 65 63 63 60 60 57 49 44 49 48 55 58 58 61 61 62 61 63 63 65 55
62 62 63 63 63 63 63 63 63 62 63 63 63 63 63 62 57 59 70 72 70 70 65 64 61 62 58 57 57 54 46 50 54 53 55 58 59 61 60 59 59 61 62 57 53
62 62 62 62 62 63 63 63 63 62 62 62 62 62 62 59 59 65 72 72 70 70 66 64 62 62 56 55 55 52 50 53 56 57 57 57 55 60 58 57 59 61 65 58 53
61 61 62 62 62 63 63 63 63 62 62 62 62 62 61 56 54 63 70 71 70 67 66 62 60 56 53 52 55 50 53 54 57 57 55 55 56 56 57 66 66 64 65 60 55
61 61 61 61 61 62 63 63 63 62 62 62 62 62 58 54 62 63 67 67 65 65 64 60 58 55 52 51 52 49 52 55 55 55 55 55 55 56 55 63 64 61 60 60 58
60 60 60 60 61 62 62 63 63 62 62 62 62 61 55 51 64 63 62 62 63 63 60 60 59 58 54 52 52 52 52 53 54 55 54 54 59 54 58 61 60 57 59 59 57
60 60 60 60 61 61 62 62 62 62 61 62 62 57 52 60 61 61 63 61 61 61 58 59 60 59 55 51 53 51 50 51 51 53 52 51 51 48 62 56 59 59 58 56 57
60 60 60 60 60 61 61 61 61 61 62 61 61 53 55 61 58 60 59 59 59 60 60 60 60 58 54 54 52 47 45 43 51 49 50 54 47 59 60 55 58 58 59 58 59
60 59 60 60 60 60 61 61 60 62 62 61 52 52 55 61 58 59 59 59 59 59 59 64 59 52 51 46 43 41 39 39 45 51 49 49 47 55 56 55 58 59 59 60 65
59 59 60 60 60 60 61 61 60 60 59 59 61 50 57 56 57 58 57 60 56 56 55 53 48 46 42 43 38 39 36 38 40 50 45 45 46 53 57 53 57 59 62 64 62
60 60 60 60 60 61 57 54 54 52 51 53 53 53 55 55 57 55 58 58 56 52 46 46 42 40 48 46 44 41 40 39 43 50 45 49 50 53 56 55 57 60 61 60 60
60 60 60 60 60 60 54 51 48 49 44 53 52 53 55 56 52 53 58 53 50 45 44 42 37 46 46 44 44 42 41 41 46 49 43 43 47 54 56 57 59 60 61 60 59
59 59 59 60 59 56 50 49 51 49 41 48 50 49 52 56 50 52 57 49 46 42 42 42 45 47 45 42 43 39 38 42 41 43 43 40 41 44 50 51 55 57 58 58 57
59 59 59 59 56 50 49 51 51 49 38 42 46 50 51 51 46 51 51 50 43 44 41 41 45 45 40 41 43 40 45 44 41 37 34 41 34 45 56 56 55 54 54 53 55
57 58 59 59 55 54 55 54 53 48 32 46 45 54 50 47 45 47 50 47 41 41 42 43 41 39 39 43 43 42 43 40 38 35 33 34 32 39 43 46 51 56 55 55 56
57 57 58 57 55 54 55 55 54 42 33 43 46 44 43 44 44 45 45 49 45 40 39 41 44 44 45 43 44 43 39 38 33 33 27 35 36 36 42 47 49 54 55 54 53
55 56 56 58 54 54 54 53 41 34 47 42 41 43 42 42 43 43 40 38 39 35 33 38 39 42 44 40 41 42 37 30 27 24 29 35 32 41 48 49 51 53 54 51 50
55 55 54 57 55 55 54 45 33 41 43 48 46 44 42 46 43 40 37 37 43 41 35 33 36 40 43 45 42 38 40 32 24 22 34 31 31 41 48 51 49 51 51 49 50
54 50 50 54 55 55 49 38 39 40 46 45 46 41 37 42 46 40 41 46 48 45 41 35 33 40 41 41 44 37 37 42 33 24 22 35 41 46 45 48 48 46 47 42 42
45 45 48 54 55 52 43 39 43 48 48 49 41 44 36 37 40 39 37 39 41 42 46 41 33 40 40 39 39 42 43 34 32 23 22 33 32 37 44 48 42 35 36 38 39
43 41 47 55 55 46 36 37 43 49 51 46 43 42 42 39 43 39 37 43 43 43 44 42 37 38 38 35 38 36 36 37 37 33 26 25 34 46 40 32 32 34 36 36 37
41 34 49 54 42 41 38 41 45 43 46 46 45 44 41 42 40 40 40 45 47 46 40 43 38 32 36 42 42 42 39 40 34 32 34 35 36 53 34 35 34 34 36 36 37
38 36 48 50 35 37 42 41 43 41 42 43 41 43 43 40 36 40 42 45 46 44 41 41 34 29 30 34 34 35 36 39 39 37 30 27 31 45 41 34 33 32 34 36 37
35 28 35 44 40 39 37 36 36 42 42 44 42 42 39 37 40 37 39 41 41 41 43 42 34 32 28 34 35 31 33 35 33 26 28 28 30 38 43 33 32 33 34 35 37
32 29 35 25 31 36 38 36 33 32 40 41 38 37 36 33 34 34 36 36 37 38 36 36 30 33 35 34 31 29 28 29 27 30 25 29 29 36 31 28 31 34 34 34 34
29 28 32 28 34 34 34 32 32 34 37 35 34 31 32 30 34 30 30 30 27 30 32 32 25 26 19 30 31 27 29 29 30 31 32 32 31 29 30 31 30 31 33 32 33
31 33 34 28 28 26 25 29 29 31 31 32 31 28 27 32 32 33 32 32 30 28 26 26 24 19 19 27 22 18 24 30 29 26 26 24 24 21 22 28 29 29 29 30 30

GFSSW_sfc_temp_030.txt.gz
Temp
63 63 64 64 64 64 64 64 63 63 63 63 64 63 63 63 64 69 71 78 75 70 72 77 77 76 76 72 72 71 66 63 64 62 70 73 71 73 75 75 74 76 78 82 70
63 63 63 63 63 63 64 64 63 63 63 63 63 63 63 63 68 70 76 72 71 70 77 76 73 74 74 70 70 69 64 66 72 73 70 73 72 75 72 74 75 75 80 75 69
62 62 62 63 63 63 63 63 63 63 63 63 63 63 62 64 71 77 72 72 70 73 80 77 77 74 69 69 69 66 65 71 70 72 71 70 70 73 72 70 77 77 81 81 72
62 62 62 62 62 63 63 63 63 63 63 62 62 62 62 69 66 78 70 71 70 78 77 74 73 69 67 65 68 61 67 69 69 68 67 67 70 69 70 75 82 83 81 81 74
61 61 61 61 62 62 63 63 63 63 62 62 62 62 68 69 73 73 68 69 74 75 75 73 70 69 65 66 64 61 67 68 68 65 66 68 66 68 70 77 80 80 74 74 77
61 60 60 61 61 62 63 63 63 62 62 62 62 61 70 63 75 73 70 69 75 75 73 73 73 72 68 65 64 66 64 66 67 66 66 63 69 68 73 78 76 76 74 77 76
61 60 60 60 61 62 62 62 62 62 62 62 62 64 66 70 73 72 71 71 71 74 69 71 72 71 68 64 66 63 60 66 68 65 64 64 60 62 74 76 72 76 79 77 75
61 60 60 60 61 61 61 62 61 61 62 62 62 66 67 68 73 69 71 69 71 73 72 71 72 69 67 66 63 60 59 56 68 60 62 64 59 72 78 72 72 77 79 78 79
60 59 60 60 60 60 61 61 61 62 62 62 64 67 66 65 68 69 72 68 68 70 70 70 71 65 64 60 58 59 54 57 59 64 61 60 60 70 72 70 70 72 75 76 78
60 60 60 60 60 60 61 61 61 62 63 64 67 63 69 66 66 66 69 69 66 66 65 65 64 61 59 58 50 57 54 56 54 65 60 58 57 64 69 68 67 70 73 74 74
60 60 60 60 60 61 64 68 67 64 64 63 64 65 65 66 67 64 66 66 67 64 58 60 57 52 60 61 62 57 55 54 60 64 57 57 59 63 66 67 68 70 72 74 74
60 60 60 60 60 60 65 63 59 58 54 62 60 60 63 65 62 61 66 62 59 57 55 53 51 60 60 57 54 55 52 53 59 62 55 57 56 61 65 65 67 68 71 72 72
59 59 59 60 60 64 62 59 60 61 53 56 57 57 59 63 59 60 63 60 57 52 53 55 60 57 54 54 52 55 51 53 53 56 57 53 55 57 65 64 67 67 68 67 66
59 58 59 59 60 61 60 60 60 61 51 53 54 58 60 60 55 59 61 59 55 52 53 53 57 53 50 51 54 49 59 53 50 48 46 53 44 57 64 66 66 66 65 66 67
58 58 59 60 63 61 59 60 58 56 36 54 55 64 59 57 56 55 60 60 53 53 52 54 50 48 48 52 54 51 52 50 48 47 44 49 44 57 58 57 64 63 63 62 61
57 57 58 60 62 60 61 59 59 47 35 50 55 53 54 55 53 55 56 60 56 51 51 53 53 53 55 52 53 52 52 51 46 46 39 51 47 51 57 59 61 61 59 56 55
56 56 57 61 59 60 60 60 45 36 53 48 50 52 51 51 50 53 52 52 50 44 47 52 54 53 53 50 49 51 47 39 39 38 39 46 44 51 59 61 57 54 51 50 51
55 56 56 60 60 58 55 49 35 45 47 53 50 49 49 52 52 51 53 49 53 49 45 41 41 49 52 52 51 47 47 33 27 33 39 46 39 52 60 54 50 49 49 49 48
55 55 55 57 58 57 51 38 43 48 52 49 49 47 48 48 50 48 48 49 51 51 42 42 42 50 48 51 52 45 41 50 36 34 30 42 50 54 52 48 47 46 47 46 46
50 50 51 57 59 54 44 41 47 52 53 52 44 49 44 47 46 44 45 47 46 48 51 42 34 47 49 49 50 49 51 39 40 26 25 38 43 46 47 43 44 44 43 44 46
49 45 52 57 56 47 37 41 47 53 54 49 46 45 46 44 47 44 45 48 50 49 50 45 40 44 45 44 45 43 40 41 37 32 28 27 39 52 45 41 41 42 43 43 44
46 40 53 55 42 44 39 43 47 48 52 49 48 46 44 45 42 43 43 47 52 49 43 46 41 34 41 52 50 47 45 43 34 31 34 35 37 53 43 40 40 39 40 42 43
42 42 51 51 37 39 44 44 47 45 47 46 45 47 49 44 38 45 46 48 49 48 42 41 36 31 34 42 41 39 43 43 44 39 32 30 36 43 41 38 38 37 38 40 41
40 36 42 44 46 42 41 40 40 46 46 48 46 47 43 41 44 40 42 45 45 43 42 42 34 32 28 32 36 33 34 33 32 28 29 31 33 41 45 45 39 37 38 39 39
38 36 39 35 37 40 43 40 37 37 43 45 43 42 40 35 36 37 42 40 41 39 40 38 30 35 36 37 37 34 32 33 30 32 25 32 31 37 41 33 34 37 38 38 38
35 35 37 35 36 37 39 38 37 38 39 39 38 42 35 34 36 32 34 36 36 36 35 34 29 31 26 34 34 28 30 32 32 33 33 34 33 44 36 37 37 38 37 36 38
37 39 38 32 33 34 34 35 34 37 34 36 35 34 31 35 37 37 38 37 36 32 30 29 28 26 22 32 28 20 28 34 37 40 39 31 33 30 31 36 38 38 38 37 38

GFSSW_sfc_temp_033.txt.gz
Temp
63 63 64 64 64 64 64 64 64 63 63 64 64 64 64 64 64 73 75 80 79 70 72 82 82 81 81 78 78 78 68 66 70 69 73 79 75 81 82 78 83 82 81 85 78
63 63 63 63 63 64 64 64 63 63 63 63 63 63 63 63 74 76 78 73 71 70 81 79 77 78 78 75 75 72 67 70 78 79 76 79 77 78 78 78 80 82 85 86 79
62 62 63 63 63 63 64 63 63 63 63 63 63 63 63 66 75 81 72 72 70 73 85 85 82 78 73 75 74 73 66 76 77 79 78 75 75 80 74 72 80 81 85 87 87
62 62 62 62 63 63 63 63 63 63 63 63 63 62 62 75 67 79 71 71 70 82 81 79 77 72 70 69 76 65 73 73 74 76 71 71 77 73 74 76 83 84 85 85 83
61 61 61 62 62 63 63 63 63 63 63 63 62 62 70 73 76 78 69 70 77 79 78 76 74 73 68 73 72 66 70 74 75 74 71 72 70 72 73 80 83 84 83 83 82
61 61 61 61 62 62 63 63 63 62 62 62 62 61 72 66 79 80 77 74 80 78 78 79 76 78 72 70 69 73 68 69 72 72 72 67 69 72 76 82 82 82 82 83 82
61 61 61 61 61 62 62 62 62 62 62 63 63 68 71 73 79 78 76 76 77 79 75 79 78 73 74 68 74 68 62 68 70 73 72 69 63 65 78 81 79 79 82 84 85
61 60 60 60 61 61 61 62 61 62 62 62 62 71 70 72 80 74 77 74 76 78 76 76 77 73 69 74 68 63 66 57 71 68 68 66 59 73 80 76 76 77 79 80 82
60 60 60 60 60 60 61 61 61 62 62 62 68 71 70 68 71 73 77 73 73 74 74 74 74 69 70 61 60 64 55 60 64 74 67 62 60 71 75 73 73 75 77 79 80
60 60 60 60 60 60 60 62 62 62 66 70 73 66 73 69 69 69 73 74 70 69 68 68 67 62 64 61 51 58 60 62 61 68 68 64 63 69 74 73 73 75 76 76 78
60 60 60 60 60 61 65 72 69 67 69 68 68 67 71 70 71 67 70 70 70 67 60 63 58 55 62 66 64 62 58 57 62 68 64 62 62 65 70 72 72 75 76 76 75
60 60 60 60 61 61 66 68 63 62 58 70 67 65 69 68 63 64 70 64 62 58 63 56 53 63 66 64 58 58 55 55 62 67 63 60 58 63 67 70 72 73 73 73 73
60 59 59 60 61 65 68 64 67 66 58 63 62 61 63 65 62 64 66 65 60 58 57 54 61 65 59 59 56 57 55 56 55 60 61 58 56 62 70 73 72 70 70 70 65
59 59 60 60 61 69 66 65 66 65 53 57 57 60 62 63 57 62 65 63 59 55 58 57 59 55 56 54 57 50 61 57 53 51 47 57 44 57 65 68 64 64 62 62 60
58 58 60 59 68 66 64 66 65 61 39 57 58 67 63 59 59 58 65 62 56 57 56 55 54 53 52 55 59 53 56 54 52 49 49 51 46 56 66 60 59 60 58 56 55
57 57 58 64 66 66 67 65 63 51 37 53 59 56 56 58 57 59 59 64 63 56 57 56 60 56 57 59 58 58 54 55 55 50 41 53 51 53 58 59 58 55 54 53 54
56 57 58 66 63 66 66 63 47 41 57 52 53 56 56 54 54 55 55 54 54 49 52 56 55 63 58 53 56 52 49 40 39 39 39 51 46 53 60 59 59 52 51 51 52
56 57 57 64 67 64 62 52 36 49 53 56 54 53 51 56 57 55 54 53 61 55 49 46 45 56 56 54 52 50 51 40 29 33 39 46 39 52 57 53 53 53 52 51 50
56 61 61 64 64 62 54 40 45 52 57 53 54 50 52 55 53 54 55 54 54 56 47 45 45 53 53 55 54 49 43 52 35 34 31 42 51 60 51 50 51 50 50 49 49
59 57 58 62 64 59 47 43 51 57 55 55 47 54 47 51 50 50 51 54 50 52 55 47 37 51 52 52 53 48 50 39 38 27 27 39 43 47 49 48 49 47 47 47 49
54 50 55 60 61 50 39 45 51 57 56 51 49 48 50 48 50 48 48 51 54 51 53 49 40 44 49 46 46 46 41 42 42 38 30 30 39 58 47 49 46 45 45 46 46
49 44 55 58 44 47 42 48 49 50 54 51 51 49 48 49 46 47 46 51 55 52 45 49 43 35 42 52 55 51 46 46 35 33 36 35 37 59 47 46 45 44 44 44 45
46 47 54 51 40 42 48 47 50 48 49 49 47 50 52 47 41 46 48 53 52 50 45 44 38 30 35 46 45 38 40 38 37 34 30 28 34 47 45 42 41 41 41 42 42
47 40 43 44 50 46 44 44 44 50 49 51 49 50 47 44 47 43 44 47 47 47 42 44 35 32 29 37 43 36 38 38 33 29 31 31 33 43 47 46 43 43 42 42 42
44 43 46 36 38 43 47 45 42 42 47 48 45 45 44 38 41 40 45 46 45 41 44 43 30 36 37 39 38 34 33 36 35 36 30 34 35 41 44 44 40 41 41 41 41
40 39 42 42 45 43 41 41 41 42 42 41 41 44 42 36 40 32 36 38 38 42 39 37 29 33 27 35 36 32 36 37 37 36 36 36 36 48 44 42 42 42 41 40 41
43 43 41 39 38 39 39 41 41 44 42 42 41 39 36 41 42 41 41 41 40 35 35 33 30 27 22 33 31 23 28 33 35 39 39 33 36 33 36 38 39 40 40 40 41

GFSSW_sfc_temp_036.txt.gz
Temp
64 64 64 64 64 64 64 64 64 64 64 64 64 64 64 64 64 68 72 77 77 70 71 79 77 77 76 72 71 69 55 54 60 61 63 69 64 68 69 66 69 71 67 71 71
63 63 63 64 64 64 64 64 64 64 64 64 64 63 63 63 69 73 74 73 71 70 77 74 73 74 68 69 68 61 54 59 68 68 65 69 67 67 66 67 67 70 75 75 69
63 63 63 63 63 64 64 64 63 63 64 63 63 63 62 62 70 75 72 72 71 71 80 79 78 74 66 68 66 63 56 66 68 70 68 66 65 69 66 62 66 67 71 70 70
62 62 62 63 63 63 64 64 63 63 63 63 63 63 62 71 61 75 71 71 70 76 77 74 72 65 62 62 69 60 67 67 67 69 64 62 66 63 66 66 72 72 73 72 71
62 62 62 62 62 63 63 63 63 63 63 63 63 62 67 69 72 75 68 70 73 74 73 72 68 66 60 65 67 61 64 68 68 67 66 67 62 61 64 70 74 75 74 71 71
61 61 61 61 62 63 63 63 63 62 62 63 63 61 66 61 77 79 74 71 76 73 72 73 70 70 65 64 61 64 63 63 65 65 67 63 62 60 66 69 71 72 70 70 71
61 61 61 61 61 62 62 62 62 62 62 63 63 65 67 68 77 76 75 72 74 74 70 73 73 65 66 61 64 64 55 60 64 65 63 63 55 58 67 69 68 69 69 70 71
61 61 61 61 61 61 61 62 61 62 62 63 63 67 63 71 74 74 75 72 73 74 71 71 71 66 62 66 62 57 55 48 62 63 58 60 48 63 68 65 65 67 69 69 70
60 60 60 60 60 60 61 61 61 62 63 62 64 66 64 69 70 71 73 70 71 70 70 74 67 61 61 53 49 52 45 50 56 65 59 55 50 62 67 65 64 67 66 67 68
60 60 60 60 60 61 61 61 62 61 63 69 71 60 67 66 66 69 70 71 67 65 64 62 59 53 53 50 41 46 49 52 51 59 60 55 53 60 64 64 65 63 64 65 61
60 60 61 60 61 61 63 66 62 60 64 64 65 65 68 67 69 65 67 67 66 61 53 57 50 46 53 56 57 52 49 48 54 61 56 55 55 58 63 63 63 64 62 60 59
60 60 60 60 61 61 62 65 60 60 54 67 67 67 68 67 61 63 67 60 58 52 57 50 45 56 59 57 54 52 47 47 54 59 54 52 51 58 62 61 61 59 59 58 56
60 60 60 60 60 61 66 62 66 65 53 61 63 62 63 64 60 60 64 61 55 52 53 49 55 60 56 53 51 51 48 48 46 51 53 48 45 51 59 59 59 58 55 54 52
60 60 61 60 58 67 64 65 66 64 48 54 56 59 62 62 55 62 63 59 56 51 52 52 55 53 50 50 52 45 54 49 48 42 37 47 32 46 56 51 53 52 49 48 49
59 59 60 58 64 64 63 66 64 58 34 57 55 65 61 57 56 55 61 57 52 53 49 49 49 48 48 51 53 49 49 47 46 41 38 41 35 44 53 47 47 47 47 47 47
57 58 58 61 65 65 67 64 59 46 35 51 56 54 54 56 55 56 56 58 56 51 52 51 53 51 52 55 52 53 46 47 45 41 30 40 39 41 46 48 44 46 47 47 47
57 57 57 64 60 66 65 59 44 37 56 50 50 54 53 51 52 52 51 47 47 41 42 48 49 52 54 46 49 46 41 31 29 27 28 42 36 43 49 51 48 45 45 45 46
56 57 57 64 63 63 59 49 35 48 51 55 53 53 49 54 52 51 48 46 53 50 44 40 38 47 49 47 43 42 43 31 22 25 28 37 30 42 49 48 48 47 45 46 45
56 56 56 61 64 60 52 39 42 49 54 53 53 47 48 52 52 50 48 49 50 49 42 41 41 47 49 48 47 41 38 43 33 32 29 33 42 43 45 44 44 44 43 42 43
51 52 53 60 62 56 46 42 49 55 54 54 45 51 45 49 46 47 46 48 46 50 52 44 35 46 46 45 45 43 45 35 34 23 16 30 32 39 41 42 43 41 40 42 43
49 45 52 60 59 49 38 43 49 56 55 49 47 46 47 45 47 45 45 47 51 47 49 46 39 39 42 40 41 40 38 39 38 32 25 25 31 42 40 42 40 39 41 42 42
48 41 53 56 43 45 40 47 49 50 53 50 49 46 44 46 44 44 44 48 52 49 42 46 40 30 36 46 47 43 41 41 33 29 31 33 33 42 40 40 41 41 43 41 42
44 45 51 51 36 38 45 47 49 47 48 48 46 48 49 45 39 44 45 48 50 47 42 42 33 26 28 37 39 35 37 39 37 32 28 26 29 44 40 40 40 40 40 40 40
44 36 42 44 46 43 42 43 42 49 48 50 47 48 45 42 45 40 42 43 44 43 44 45 35 28 22 31 37 29 33 35 30 27 27 28 31 40 43 41 41 37 38 38 39
42 39 43 34 37 40 43 44 41 40 46 47 43 43 42 36 39 39 42 42 42 41 41 41 27 30 33 35 32 29 29 32 29 31 24 29 31 37 40 37 34 36 37 37 37
37 36 39 37 42 39 40 38 40 42 42 40 39 43 43 36 37 25 31 34 33 36 37 35 19 25 17 30 31 27 31 32 32 33 33 33 32 43 36 36 35 36 37 36 36
40 41 38 39 36 37 37 38 39 43 43 43 41 37 36 38 39 38 38 37 36 32 31 29 22 13 9 27 23 14 26 30 32 35 34 27 32 26 29 32 33 34 35 35 36

GFSSW_sfc_temp_042.txt.gz
Temp
64 64 64 64 64 64 64 64 64 64 64 64 64 64 63 63 63 61 63 71 70 70 69 67 66 65 65 61 62 57 47 43 47 49 53 59 58 63 62 58 59 64 60 64 61
63 63 63 64 63 64 64 64 64 64 63 64 64 63 63 63 59 61 72 72 71 70 68 65 62 63 58 58 58 52 44 49 55 55 52 57 55 58 58 59 57 59 64 62 60
63 63 63 63 63 63 64 64 63 63 63 63 63 63 62 60 61 65 72 72 71 69 69 67 66 64 55 55 55 52 49 54 57 59 58 57 57 57 53 55 59 61 59 62 59
62 62 62 62 63 63 63 63 63 63 63 63 63 63 62 59 53 65 70 71 70 68 67 65 61 56 53 52 58 49 57 58 59 59 57 55 58 57 57 62 64 62 61 60 61
61 61 61 62 62 63 63 63 63 63 62 63 63 62 59 57 62 67 68 68 67 67 63 62 58 57 51 53 55 51 54 58 59 59 57 57 56 55 58 63 62 62 63 60 59
61 61 61 61 61 62 63 63 63 62 62 63 63 61 56 53 67 69 67 65 67 65 62 62 60 61 55 54 53 53 54 56 58 59 57 57 53 54 61 57 62 62 59 54 52
61 60 60 61 61 62 62 62 62 62 62 63 63 61 56 61 66 67 68 65 66 65 62 62 62 59 56 52 58 54 51 54 55 55 55 55 51 52 61 58 60 59 53 51 51
60 60 60 60 61 61 62 62 62 62 62 63 63 57 56 65 64 66 66 64 65 65 64 64 64 61 57 57 55 49 46 43 54 54 53 54 46 58 62 56 58 54 47 48 48
60 59 60 60 60 60 61 61 61 62 63 63 56 53 57 67 63 64 64 63 64 63 64 69 61 55 54 46 42 42 38 41 49 54 53 50 46 56 60 55 55 49 45 47 46
60 59 60 60 60 60 61 61 62 61 61 63 64 52 58 59 61 63 62 65 60 58 57 56 50 45 43 42 37 40 38 42 42 51 49 46 46 53 56 55 51 43 43 44 44
60 60 60 60 60 61 60 57 56 54 55 57 56 56 59 60 63 60 62 61 58 54 47 48 44 41 46 46 47 43 41 41 44 51 46 46 46 52 52 48 44 43 43 43 43
60 60 60 60 61 61 57 54 55 55 51 59 58 59 61 62 55 57 63 55 52 47 48 44 40 50 49 48 46 43 40 40 46 49 46 45 46 42 45 44 44 43 41 42 42
59 59 60 60 60 57 55 56 60 56 47 54 57 57 57 60 54 55 59 53 49 45 45 42 48 51 50 46 45 43 41 40 43 44 44 41 41 41 44 44 45 43 42 42 40
59 59 60 60 56 57 56 60 59 57 41 47 51 54 56 57 50 57 57 54 48 46 45 44 50 49 45 45 46 40 46 45 42 38 33 40 30 38 41 39 40 39 37 37 38
59 59 59 60 55 55 59 59 58 55 32 50 49 58 55 51 51 50 55 51 46 46 45 44 44 44 43 46 47 43 45 43 40 36 32 33 31 36 40 36 36 36 37 37 38
59 59 59 58 57 60 61 60 58 44 31 44 49 48 47 48 49 50 50 52 50 45 44 45 47 47 48 47 47 47 43 40 36 34 26 33 34 33 37 39 36 37 37 39 38
58 58 57 61 56 61 60 56 41 35 48 43 43 46 45 44 44 46 44 42 41 36 36 41 43 45 47 42 43 42 37 29 25 23 26 34 30 36 37 39 40 36 36 36 37
58 57 57 60 59 59 56 47 35 41 42 48 46 45 43 45 44 44 41 39 43 40 37 35 34 43 46 44 42 38 38 27 18 21 24 32 29 34 36 38 39 38 37 37 37
56 53 54 56 59 59 51 39 41 45 48 46 46 40 40 45 44 42 39 39 44 44 39 34 35 42 43 43 46 38 34 38 29 29 27 29 30 35 36 35 36 36 36 36 36
50 50 50 56 58 55 47 42 46 51 51 49 40 43 37 42 43 40 38 42 43 45 44 41 32 40 41 42 40 39 42 31 28 14 20 26 28 30 31 33 35 34 35 36 37
49 45 51 54 54 47 41 42 45 52 53 47 43 43 42 42 42 38 40 42 43 42 45 40 37 34 38 36 36 34 33 34 35 28 18 15 26 36 36 36 34 35 37 37 37
47 41 51 53 43 42 38 42 47 47 48 47 47 45 42 43 41 39 39 43 46 45 40 41 36 25 33 37 39 37 36 35 29 25 25 26 29 40 39 38 38 38 39 38 38
43 41 50 50 37 37 41 42 44 43 44 44 42 45 46 43 38 39 40 41 43 43 40 41 30 17 26 33 34 33 33 34 32 28 20 24 26 38 36 36 37 37 38 37 37
41 36 41 44 43 41 38 40 41 45 45 46 44 44 41 39 42 38 36 39 40 39 45 44 30 27 27 29 31 27 30 31 28 18 19 26 26 31 34 35 35 36 36 34 34
40 37 41 35 39 39 42 41 40 38 44 46 41 41 40 35 36 35 36 35 38 41 38 38 26 30 28 30 29 28 28 29 28 29 22 30 28 35 35 33 35 35 31 32 33
36 35 38 37 42 39 39 36 38 41 41 39 39 41 42 38 37 32 34 34 34 33 34 33 21 25 18 30 32 27 30 29 30 31 29 30 29 40 36 33 30 32 32 32 32
38 39 37 36 36 36 36 37 38 42 38 41 43 38 37 39 39 37 37 37 36 33 31 29 22 18 18 25 22 15 22 30 33 31 30 25 30 23 27 32 31 31 31 32 33

GFSSW_sfc_temp_045.txt.gz
Temp
63 63 64 64 64 64 64 64 64 64 64 64 64 63 63 63 63 60 61 69 68 70 69 65 64 63 63 59 60 54 46 42 45 48 51 56 56 60 58 56 57 61 58 61 60
63 63 63 64 63 63 64 64 64 63 63 63 63 63 63 63 58 60 71 72 71 70 65 62 59 61 57 56 56 51 44 48 52 52 50 54 52 54 57 57 53 56 63 61 58
62 63 63 63 63 63 63 63 63 63 63 63 63 63 62 60 60 63 71 72 70 68 66 64 64 61 53 53 52 49 48 51 54 56 54 54 54 55 51 54 57 57 60 60 60
62 62 62 62 63 63 63 63 63 63 63 63 63 62 62 58 52 63 70 70 70 66 65 63 60 54 50 49 54 47 54 54 57 57 54 53 57 54 55 60 60 58 56 56 54
61 61 61 61 62 62 63 63 63 63 62 63 63 62 59 55 61 65 68 68 66 65 63 61 57 55 50 51 52 49 52 55 58 56 54 54 56 53 57 62 59 58 54 51 49
61 60 60 61 61 62 62 63 63 62 62 63 63 62 56 52 65 67 65 64 65 63 61 61 59 59 53 52 51 52 53 54 56 56 55 54 52 52 58 56 57 55 49 47 47
60 60 60 60 61 62 62 62 62 62 62 63 63 60 54 59 64 64 65 62 64 63 60 60 60 57 55 50 54 52 50 52 54 52 54 53 50 51 59 56 54 49 46 46 46
60 60 60 60 61 61 61 62 61 61 62 63 62 55 55 63 62 64 64 62 63 63 62 61 61 58 54 55 53 47 45 43 51 51 51 52 46 57 58 55 49 45 42 44 45
59 59 60 60 60 60 61 61 61 61 63 62 55 52 55 65 61 63 62 62 62 62 62 67 61 53 53 46 42 41 37 39 47 51 50 48 45 55 56 53 49 41 41 43 42
59 59 60 60 60 60 60 61 62 61 61 62 62 52 58 58 60 62 61 63 58 57 56 55 49 44 42 42 37 38 37 40 41 47 48 44 46 53 51 48 42 39 39 40 41
59 59 60 60 60 61 59 56 55 53 54 56 55 55 57 58 61 58 61 60 57 54 46 47 43 41 44 46 44 42 39 39 42 49 45 45 45 46 45 41 39 39 39 39 40
59 60 60 60 61 61 57 54 56 56 50 58 56 57 60 60 54 57 62 55 52 46 46 43 40 49 48 46 44 41 38 38 44 46 45 44 44 40 41 40 40 38 37 38 39
59 59 59 60 60 58 54 56 59 57 47 53 56 55 56 59 54 54 59 53 48 44 44 41 47 49 48 44 42 40 39 38 42 42 41 39 40 39 39 40 40 39 39 39 37
59 59 59 60 56 56 54 60 58 57 42 46 50 54 55 56 50 56 57 54 46 45 43 42 48 47 43 43 45 37 45 42 40 37 33 37 29 37 37 36 36 36 34 35 36
59 59 59 60 55 54 59 58 58 56 32 48 48 57 54 51 49 49 53 51 45 45 44 43 43 42 42 44 46 42 44 42 39 35 32 32 30 34 35 32 33 34 35 35 36
59 59 59 58 57 58 60 59 57 42 32 43 47 46 47 48 47 49 49 52 49 45 42 44 46 46 46 45 46 46 41 38 34 33 25 33 33 32 34 36 34 35 35 36 36
58 58 57 60 56 61 59 55 41 35 46 41 41 44 44 42 43 45 43 41 39 35 35 39 41 43 46 42 42 41 37 29 25 23 26 30 30 34 35 35 38 35 34 35 36
58 58 58 60 61 60 55 46 34 42 43 46 44 43 41 44 43 42 40 38 42 39 35 35 33 43 45 44 40 37 38 28 18 20 24 31 28 35 34 36 38 37 36 35 35
58 57 57 59 59 58 50 40 40 44 46 44 44 39 38 43 42 40 38 37 42 42 39 34 35 41 42 41 44 36 33 37 28 17 23 28 31 33 34 33 34 34 34 34 35
54 53 54 58 58 54 47 43 44 51 50 48 40 43 36 40 40 38 37 41 42 44 43 40 32 39 40 42 39 38 40 31 28 15 13 25 27 31 29 31 32 32 33 35 36
50 46 51 57 56 49 42 43 46 52 53 47 43 41 41 41 42 37 38 41 43 41 44 40 37 33 37 36 36 34 33 33 33 26 17 14 25 35 35 35 33 34 36 36 36
48 42 50 53 44 44 44 43 47 47 49 48 47 44 43 43 38 40 40 43 45 44 40 41 36 26 33 35 35 35 35 35 30 25 24 26 30 37 36 37 37 36 38 36 37
44 43 49 49 40 38 40 42 45 44 44 44 43 45 45 42 37 39 40 39 42 43 40 41 31 20 27 32 32 32 34 34 31 27 22 21 26 36 34 34 36 36 36 37 36
42 37 41 44 43 40 38 39 39 43 43 44 43 44 41 39 42 38 37 39 39 40 45 44 31 29 30 30 32 28 31 31 27 19 22 29 29 29 33 34 34 35 35 36 34
40 39 41 35 37 40 41 38 37 36 41 44 40 43 42 36 37 36 36 35 38 41 37 39 29 28 28 29 28 29 28 30 28 30 26 29 30 33 34 34 35 35 34 33 32
37 36 38 37 42 39 39 36 36 39 39 38 39 42 43 38 38 33 35 35 34 32 34 33 23 26 27 30 31 28 29 30 31 31 29 31 31 39 35 36 34 34 34 33 32
38 39 38 36 36 37 36 37 37 42 39 41 41 39 39 42 41 38 38 38 37 34 31 29 26 23 26 25 24 20 25 29 30 31 33 27 34 24 29 32 32 32 32 32 32

GFSSW_sfc_temp_048.txt.gz
Temp
63 63 63 64 64 64 64 64 64 64 63 64 64 63 63 63 63 58 59 67 66 70 69 62 64 62 61 58 57 52 46 41 44 46 48 52 54 55 56 53 57 57 56 59 59
63 63 63 63 63 63 64 64 63 63 63 63 63 63 63 63 57 58 69 72 70 70 63 60 57 60 56 54 54 50 43 46 49 49 48 52 50 52 54 52 52 55 59 60 59
62 62 63 63 63 63 63 63 63 63 63 63 63 63 62 59 60 61 70 72 70 68 64 63 62 59 52 51 50 47 47 48 52 53 52 52 51 52 49 53 52 52 57 55 51
62 62 62 62 62 63 63 63 63 63 63 63 63 62 62 57 51 61 70 70 70 66 64 61 59 52 48 48 52 46 52 52 55 54 52 51 53 52 53 54 55 53 53 49 47
61 61 61 61 62 62 63 63 63 62 62 63 63 62 58 55 60 63 67 67 64 63 61 59 55 53 48 49 50 48 50 53 55 54 53 53 52 51 55 53 54 52 49 46 45
60 60 60 60 61 62 62 63 63 62 62 63 63 62 55 51 63 64 64 63 63 61 58 59 57 57 52 50 49 50 50 53 54 53 53 52 48 49 52 52 51 49 44 43 44
60 60 60 60 61 61 62 62 62 62 62 63 63 60 53 59 62 62 64 61 63 61 59 59 60 56 54 49 52 50 48 50 51 50 52 52 48 49 52 51 46 43 42 43 43
60 60 60 60 60 61 61 61 61 61 62 63 62 55 55 62 60 62 62 60 62 62 61 60 60 57 52 53 51 45 44 42 49 49 50 50 46 52 51 49 42 41 39 41 42
59 59 59 60 60 60 61 61 61 62 63 62 55 53 54 64 59 62 61 60 60 60 60 65 59 51 52 46 41 40 37 39 46 49 48 46 45 51 47 47 40 38 38 40 40
59 59 59 60 60 60 61 61 61 60 60 61 61 51 57 57 59 60 59 61 57 56 55 54 48 43 42 41 36 37 35 38 40 45 46 42 45 48 42 41 37 35 36 37 38
59 59 60 60 60 61 59 55 54 51 51 54 54 54 56 58 60 57 59 59 56 53 46 45 42 40 43 45 43 41 38 38 41 46 42 44 44 42 40 38 36 36 36 37 37
59 60 60 60 60 61 58 52 55 54 49 57 55 56 59 60 54 56 61 54 51 46 45 42 39 47 47 44 43 40 36 37 42 44 44 42 42 37 38 36 37 36 35 36 37
59 59 59 60 60 58 55 55 59 56 47 52 54 53 55 58 54 54 58 53 48 43 43 41 45 48 47 42 41 38 37 37 41 40 40 38 38 36 36 37 38 37 36 37 36
59 59 59 59 56 57 54 59 59 56 40 45 49 52 54 56 49 55 57 55 46 45 43 41 47 46 41 41 43 37 43 42 40 36 32 35 30 35 34 34 35 35 33 34 34
59 59 59 59 55 54 59 58 58 56 30 47 46 56 53 52 49 48 54 52 44 44 44 42 42 41 41 43 45 41 43 40 37 33 31 31 29 33 33 30 32 32 33 33 35
59 58 58 57 57 57 59 59 59 42 31 41 46 45 46 47 47 48 49 51 50 44 41 43 44 44 44 43 44 44 40 38 33 31 25 32 33 31 31 34 32 33 33 35 34
58 58 57 61 55 59 59 55 40 33 45 40 40 43 42 41 42 44 43 41 39 35 35 38 41 42 45 40 41 40 37 29 26 23 26 29 28 34 35 34 36 35 34 34 34
58 57 58 60 62 58 54 46 33 41 41 43 42 41 40 42 41 40 38 37 41 38 34 34 33 42 44 42 39 37 37 29 20 20 24 30 27 35 34 34 36 38 36 34 33
57 56 57 59 61 58 48 39 38 42 47 42 42 37 36 40 40 38 36 36 41 41 37 33 35 40 41 41 42 35 33 36 27 15 20 28 32 33 33 31 32 33 33 33 33
55 54 55 61 57 54 46 41 43 49 49 47 41 41 35 37 37 36 35 40 41 43 43 40 33 37 38 41 39 38 39 31 28 17 14 26 27 31 30 30 31 31 32 33 34
51 47 52 59 56 49 41 42 47 50 52 48 46 41 39 37 38 35 37 40 43 41 46 40 38 33 37 35 35 33 32 32 32 26 18 14 26 34 35 33 32 33 35 35 35
49 43 51 56 45 45 44 46 48 49 49 49 47 46 41 41 37 36 37 41 45 46 41 42 36 26 32 34 34 34 35 34 30 25 23 24 30 35 34 36 36 35 36 35 35
46 44 49 51 40 41 43 43 45 44 46 44 44 46 45 41 38 38 39 40 44 44 42 42 33 21 27 31 32 32 34 34 32 28 23 21 26 35 33 34 34 33 34 35 36
43 38 41 44 44 43 39 39 40 43 43 44 43 43 41 39 42 37 37 38 41 42 45 46 33 30 30 31 33 29 31 32 30 21 23 31 33 31 33 34 33 33 34 34 35
41 40 42 35 37 40 41 38 38 37 41 42 39 40 39 34 36 36 38 37 39 42 39 40 32 29 27 30 29 30 30 31 29 35 30 34 32 33 36 36 34 34 33 34 34
38 37 39 38 44 40 38 33 35 36 36 34 36 39 40 34 36 32 35 35 37 35 36 34 26 26 20 29 30 27 30 29 32 30 30 30 31 37 36 34 33 35 34 35 34
38 39 37 37 37 38 38 37 36 41 39 41 39 37 36 40 41 37 40 39 40 36 33 32 27 22 23 26 26 26 29 29 29 30 32 27 35 27 31 34 35 35 34 34 35